When you browse on this site, cookies collect data to enhance your experience and personalize the content and advertising you see.
Visit our Privacy Policy to learn more. By continuing to use the site, you agree to this use of cookies and data.
  • In United Kingdom
  • List of Countries
  • For 7 days
  • Water Temperature
  • Satellite Maps
  • Weather Map
  • Weather Widgets
  • user-avatar
    Login

    Hourly Weather Arroyohondo

    Today, 21 July, Sunday

    Time Temperature Precipitation Wind Pressure Humidity
    00:00 +27°C° 0 mm 1 mps 752 mmHg 84%
    01:00 +25°C° 0 mm 0 mps 752 mmHg 84%
    02:00 +27°C° 0 mm 1 mps 751 mmHg 83%
    03:00 +27°C° 0 mm 1 mps 751 mmHg 83%
    04:00 +27°C° 0 mm 1 mps 751 mmHg 82%
    05:00 +27°C° 0 mm 1 mps 751 mmHg 81%
    06:00 +27°C° 0 mm 1 mps 752 mmHg 79%
    07:00 +28°C° 0 mm 2 mps 752 mmHg 77%
    08:00 +30°C° 0 mm 2 mps 752 mmHg 70%
    09:00 +33°C° 0 mm 3 mps 753 mmHg 63%
    10:00 +35°C° 0 mm 3 mps 753 mmHg 55%
    11:00 +36°C° 0 mm 3 mps 753 mmHg 52%
    12:00 +37°C° 0 mm 3 mps 752 mmHg 49%
    13:00 +39°C° 0 mm 3 mps 752 mmHg 45%
    14:00 +38°C° 0 mm 3 mps 751 mmHg 47%
    15:00 +38°C° 0 mm 3 mps 751 mmHg 49%
    16:00 +37°C° 0 mm 3 mps 750 mmHg 51%
    17:00 +35°C° 0.1 mm 3 mps 750 mmHg 59%
    18:00 +33°C° 0.1 mm 3 mps 751 mmHg 67%
    19:00 +29°C° 0.1 mm 3 mps 751 mmHg 75%
    20:00 +29°C° 0 mm 3 mps 752 mmHg 79%
    21:00 +28°C° 0 mm 2 mps 752 mmHg 83%
    22:00 +27°C° 0 mm 2 mps 753 mmHg 86%
    23:00 +27°C° 0 mm 2 mps 753 mmHg 87%

    Tomorrow, 22 July, Monday

    Time Temperature Precipitation Wind Pressure Humidity
    00:00 +27°C° 0 mm 1 mps 752 mmHg 88%
    01:00 +27°C° 0 mm 1 mps 752 mmHg 89%
    02:00 +26°C° 0 mm 1 mps 752 mmHg 88%
    03:00 +26°C° 0 mm 1 mps 752 mmHg 88%
    04:00 +26°C° 0 mm 2 mps 751 mmHg 88%
    05:00 +27°C° 0 mm 2 mps 752 mmHg 84%
    06:00 +27°C° 0 mm 2 mps 752 mmHg 81%
    07:00 +28°C° 0 mm 2 mps 753 mmHg 78%
    08:00 +30°C° 0 mm 3 mps 753 mmHg 72%
    09:00 +32°C° 0 mm 4 mps 753 mmHg 66%
    10:00 +34°C° 0 mm 4 mps 754 mmHg 60%
    11:00 +35°C° 0 mm 4 mps 753 mmHg 56%
    12:00 +36°C° 0 mm 3 mps 753 mmHg 52%
    13:00 +37°C° 0 mm 3 mps 752 mmHg 49%
    14:00 +37°C° 0.1 mm 3 mps 752 mmHg 52%
    15:00 +36°C° 0.1 mm 4 mps 751 mmHg 56%
    16:00 +35°C° 0.1 mm 5 mps 751 mmHg 60%
    17:00 +33°C° 0.3 mm 4 mps 751 mmHg 67%
    18:00 +30°C° 0.3 mm 4 mps 752 mmHg 75%
    19:00 +28°C° 0.3 mm 3 mps 752 mmHg 82%
    20:00 +28°C° 0.1 mm 3 mps 753 mmHg 85%
    21:00 +27°C° 0.1 mm 2 mps 754 mmHg 87%
    22:00 +27°C° 0.1 mm 2 mps 754 mmHg 90%
    23:00 +26°C° 0.1 mm 2 mps 754 mmHg 91%

    Day after tomorrow, 23 July, Tuesday

    Time Temperature Precipitation Wind Pressure Humidity
    00:00 +26°C° 0.1 mm 2 mps 754 mmHg 92%
    01:00 +26°C° 0.1 mm 2 mps 753 mmHg 93%
    02:00 +26°C° 1 mm 2 mps 753 mmHg 93%
    03:00 +26°C° 1 mm 3 mps 753 mmHg 94%
    04:00 +26°C° 1 mm 3 mps 754 mmHg 94%
    05:00 +26°C° 0.4 mm 3 mps 754 mmHg 94%
    06:00 +26°C° 0.4 mm 3 mps 754 mmHg 93%
    07:00 +26°C° 0.4 mm 3 mps 755 mmHg 93%
    08:00 +28°C° 0 mm 3 mps 755 mmHg 86%
    09:00 +29°C° 0 mm 2 mps 755 mmHg 79%
    10:00 +31°C° 0 mm 2 mps 756 mmHg 72%
    11:00 +32°C° 0.1 mm 2 mps 755 mmHg 68%
    12:00 +34°C° 0.1 mm 2 mps 754 mmHg 65%
    13:00 +35°C° 0.1 mm 2 mps 754 mmHg 62%
    14:00 +34°C° 1.5 mm 2 mps 754 mmHg 66%
    15:00 +33°C° 1.5 mm 3 mps 753 mmHg 71%
    16:00 +31°C° 1.5 mm 3 mps 753 mmHg 76%
    17:00 +30°C° 1.7 mm 3 mps 753 mmHg 81%
    18:00 +29°C° 1.7 mm 3 mps 754 mmHg 86%
    19:00 +27°C° 1.7 mm 3 mps 754 mmHg 91%
    20:00 +27°C° 0.4 mm 2 mps 755 mmHg 92%
    21:00 +27°C° 0.4 mm 2 mps 755 mmHg 93%
    22:00 +27°C° 0.4 mm 2 mps 756 mmHg 93%
    23:00 +27°C° 0.8 mm 2 mps 755 mmHg 93%

    24 July, Wednesday

    Time Temperature Precipitation Wind Pressure Humidity
    00:00 +27°C° 0.8 mm 1 mps 755 mmHg 93%
    01:00 +26°C° 0.8 mm 1 mps 754 mmHg 93%
    02:00 +26°C° 0.6 mm 2 mps 754 mmHg 93%
    03:00 +26°C° 0.6 mm 2 mps 754 mmHg 93%
    04:00 +26°C° 0.6 mm 2 mps 754 mmHg 94%
    05:00 +26°C° 0.1 mm 2 mps 754 mmHg 93%
    06:00 +27°C° 0.1 mm 2 mps 754 mmHg 92%
    07:00 +27°C° 0.1 mm 2 mps 755 mmHg 92%
    08:00 +28°C° 1 mm 2 mps 755 mmHg 87%
    09:00 +29°C° 1 mm 2 mps 755 mmHg 82%
    10:00 +31°C° 1 mm 2 mps 756 mmHg 77%
    11:00 +31°C° 0.4 mm 2 mps 755 mmHg 73%
    12:00 +32°C° 0.4 mm 1 mps 754 mmHg 69%
    13:00 +33°C° 0.4 mm 1 mps 754 mmHg 66%
    14:00 +32°C° 0.1 mm 2 mps 753 mmHg 68%
    15:00 +32°C° 0.1 mm 2 mps 752 mmHg 70%
    16:00 +33°C° 0.1 mm 3 mps 752 mmHg 73%
    17:00 +30°C° 1.5 mm 3 mps 752 mmHg 78%
    18:00 +29°C° 1.5 mm 3 mps 753 mmHg 83%
    19:00 +28°C° 1.5 mm 2 mps 753 mmHg 88%
    20:00 +28°C° 0 mm 2 mps 753 mmHg 88%
    21:00 +27°C° 0 mm 2 mps 754 mmHg 89%
    22:00 +27°C° 0 mm 2 mps 754 mmHg 90%
    23:00 +27°C° 0 mm 2 mps 754 mmHg 91%

    25 July, Thursday

    Time Temperature Precipitation Wind Pressure Humidity
    00:00 +27°C° 0 mm 2 mps 753 mmHg 91%
    01:00 +27°C° 0 mm 2 mps 753 mmHg 92%
    02:00 +27°C° 0 mm 2 mps 753 mmHg 92%
    03:00 +26°C° 0 mm 1 mps 753 mmHg 92%
    04:00 +26°C° 0 mm 1 mps 753 mmHg 93%
    05:00 +27°C° 0 mm 1 mps 753 mmHg 92%
    06:00 +27°C° 0 mm 1 mps 754 mmHg 90%
    07:00 +27°C° 0 mm 2 mps 754 mmHg 89%
    08:00 +29°C° 0.5 mm 2 mps 754 mmHg 83%
    09:00 +30°C° 0.5 mm 2 mps 754 mmHg 78%
    10:00 +31°C° 0.5 mm 2 mps 754 mmHg 72%
    11:00 +32°C° 0.1 mm 2 mps 754 mmHg 68%
    12:00 +34°C° 0.1 mm 2 mps 753 mmHg 64%
    13:00 +33°C° 0.1 mm 1 mps 753 mmHg 59%
    14:00 +34°C° 0.5 mm 2 mps 752 mmHg 63%
    15:00 +32°C° 0.5 mm 2 mps 752 mmHg 66%
    16:00 +33°C° 0.5 mm 3 mps 751 mmHg 69%
    17:00 +31°C° 0.2 mm 3 mps 752 mmHg 75%
    18:00 +29°C° 0.2 mm 2 mps 753 mmHg 80%
    19:00 +28°C° 0.2 mm 2 mps 753 mmHg 86%
    20:00 +28°C° 0 mm 2 mps 754 mmHg 87%
    21:00 +27°C° 0 mm 1 mps 754 mmHg 88%
    22:00 +27°C° 0 mm 1 mps 754 mmHg 89%
    23:00 +27°C° 0.1 mm 1 mps 754 mmHg 89%

    26 July, Friday

    Time Temperature Precipitation Wind Pressure Humidity
    00:00 +26°C° 0.1 mm 1 mps 754 mmHg 90%
    01:00 +26°C° 0.1 mm 1 mps 753 mmHg 90%
    02:00 +26°C° 0 mm 1 mps 753 mmHg 90%
    03:00 +26°C° 0 mm 1 mps 753 mmHg 91%
    04:00 +26°C° 0 mm 1 mps 753 mmHg 91%
    05:00 +26°C° 0 mm 1 mps 754 mmHg 90%
    06:00 +27°C° 0 mm 1 mps 754 mmHg 89%
    07:00 +27°C° 0 mm 1 mps 754 mmHg 88%
    08:00 +29°C° 0 mm 2 mps 755 mmHg 80%
    09:00 +30°C° 0 mm 2 mps 755 mmHg 73%
    10:00 +32°C° 0 mm 2 mps 755 mmHg 66%
    11:00 +34°C° 0 mm 2 mps 755 mmHg 63%
    12:00 +34°C° 0 mm 2 mps 754 mmHg 59%
    13:00 +34°C° 0 mm 1 mps 754 mmHg 56%
    14:00 +34°C° 1.2 mm 2 mps 753 mmHg 62%
    15:00 +33°C° 1.2 mm 3 mps 753 mmHg 68%
    16:00 +32°C° 1.2 mm 4 mps 752 mmHg 75%
    17:00 +30°C° 1.1 mm 4 mps 753 mmHg 80%
    18:00 +29°C° 1.1 mm 3 mps 753 mmHg 85%
    19:00 +28°C° 1.1 mm 2 mps 754 mmHg 91%
    20:00 +27°C° 0.4 mm 2 mps 754 mmHg 91%
    21:00 +27°C° 0.4 mm 2 mps 754 mmHg 92%
    22:00 +27°C° 0.4 mm 2 mps 755 mmHg 92%
    23:00 +27°C° 1.1 mm 2 mps 755 mmHg 92%
    Show more